Regional Weather Roundup
Issued by NWS Northern Indiana

Home | Current Version | Previous Version | Graphics & Text | Print | Product List | Glossary On
Versions: 1 2 3 4 5 6 7 8 9 10 11 12 13 14 15 16 17 18 19 20 21 22 23 24 25 26 27 28 29 30 31 32 33 34 35 36 37 38 39 40 41 42 43 44 45 46 47 48 49 50
000
ASUS43 KIWX 041900
RWRIWX

KIWX WEATHER ROUNDUP
NATIONAL WEATHER SERVICE NORTHERN INDIANA
300 PM EDT SAT JUL 04 2015

NOTE: "FAIR" INDICATES FEW OR NO CLOUDS BELOW 12,000 FEET WITH NO
SIGNIFICANT WEATHER AND/OR OBSTRUCTIONS TO VISIBILITY.

* THESE STATIONS ARE NOT UNDER NWS QUALITY CONTROL. THEY ALSO MAY NOT
  REPORT WEATHER SUCH AS PRECIPITATION OR FOG.

INZ001>027-042000-
NORTHERN INDIANA

CITY           SKY/WX    TMP DP  RH WIND       PRES   REMARKS
GARY*          MOSUNNY  N/A N/A N/A NE7       30.01F
SOUTH BEND     SUNNY     78  57  48 SW6       30.02S
ELKHART*       SUNNY     77  55  47 SW7       30.02S
GOSHEN         SUNNY     76  57  51 CALM      30.02S
ANGOLA*          N/A     81  73  78 NW5       30.02S
FORT WAYNE     CLOUDY    78  57  48 VRB5      30.02F
PERU/GRISSOM   MOSUNNY   77  60  55 W3        30.02S

$$
INZ028>050-042000-
CENTRAL INDIANA

CITY           SKY/WX    TMP DP  RH WIND       PRES   REMARKS
LAFAYETTE      SUNNY     77  57  50 S5        30.02S
KOKOMO*        MOSUNNY   79  57  47 CALM      30.02S
MUNCIE*        PTSUNNY   77  58  51 MISG      30.02F
INDIANAPOLIS   MOSUNNY   77  57  50 CALM      30.00F

$$
MIZ043>046-050>051-056>058-064>065-071>073-077>080-042000-
SOUTHWEST LOWER MICHIGAN

CITY           SKY/WX    TMP DP  RH WIND       PRES   REMARKS
BATTLE CREEK   SUNNY     78  55  44 NW6       30.02S
BENTON HARBOR  SUNNY     75  57  53 W7        30.02S
COLDWATER*     SUNNY     75  56  50 CALM      30.02S
HILLSDALE*     MOSUNNY   77  55  47 S3        30.02F
HOLLAND        SUNNY     77  58  51 W8        30.02S
GRAND RAPIDS   CLOUDY    79  55  43 SW8       30.00S
KALAMAZOO      SUNNY     79  56  45 CALM      30.01S
STURGIS*       SUNNY     75  54  46 W3        30.02S
THREE RIVERS*  FAIR      77  55  46 CALM      30.02S

$$
OHZ001>008-015>018-024>025-042000-
NORTHWEST OHIO

CITY           SKY/WX    TMP DP  RH WIND       PRES   REMARKS
DEFIANCE       MOSUNNY   79  55  43 W7        30.01F
FINDLAY        MOSUNNY   77  56  48 VRB6      30.01S
TOLEDO EXPRESS SUNNY     78  52  40 W7        30.00S
TOLEDO METCALF SUNNY     77  52  41 VRB5      30.01S
LIMA           MOSUNNY   75  55  49 N3        30.02S

$$
AND FOR LAKE MICHIGAN COASTAL AND OPEN LAKE BUOY OBSERVATIONS

STATION/POSITION TEMP    WIND        PRES    VSBY  WAVE
                 AIR SEA DIR/SP/G                  HT/PER
                 (F)     (DEG/KT/KT) (MB)    (MI)  (FT/S)
CALUMET HARBOR    71      70/  8/ 10   N/A
MICHIGAN CITY     70     310/  4/  4   N/A
BURNS HARBOR      70      40/  5/  6 1016.9F
SAINT JOSEPH      69     180/  3/  4   N/A
4 MI NW BRIDGMAN  65 65                N/A           0
MICHIGAN CITY     68 66  330/  2/  4   N/A           0

$$
&&


USA.gov is the U.S. government's official web portal to all federal, state and local government web resources and services.